sat.trackr.live / text

‹ back to catalog

STARLINK-36356

NORAD 68242 · 2026-054L

PAYLOAD ACTIVE UNKNOWN

§ Identity

Operator
Country
US
Launch date
2026-03-17
Launch site
AFETR
Launch vehicle
Mass (kg)
RCS (m²)

Purposes: comms

External: N2YO · Heavens-Above · Gunter

§ Orbital elements

Epoch: 2026-09-19T22:55:05.971008Z

Period
93.85 min
Inclination
53.1564°
Eccentricity
0.0003425
Mean motion
15.34360782 rev/d
Perigee alt
460.5 km
Apogee alt
465.2 km
Semi-major
6,841.0 km
B*
6.8131e-4
RAAN
112.5269°
Arg perigee
90.0710°
Mean anomaly
270.0685°
Rev number
2,876

§ Raw data

STARLINK-363561 68242U 26054L   26262.95493022  .00022686  00000+0  68131-3 0  99962 68242  53.1564 112.5269 0003425  90.0710 270.0685 15.34360782 28765

JSON: /api/v1/satellites/68242 · /tle

For live sub-satellite position, see the globe view (requires WebGL).

§ Visibility from observer

Set your observer location to see the next 7 days of passes ≥ 10°. The values pass through the URL so the page stays shareable.

No JS? Fill the form by hand. The geolocation button needs JavaScript.